Presure
132 112 140 184 165 163 182 159 169 135 179 195 160 159 136 199 206 132 201 167 157 159 157 172 205 213 202 203 193 196 184 183 189 181 182 182 197 202 194 210 217 214 216
149 125 149 127 136 136 173 146 158 153 144 132 173 200 185 178 95 93 218 130 211 216 209 208 200 209 211 206 197 193 191 186 187 183 190 191 192 201 201 187 186 185 188
167 166 142 155 155 162 123 182 170 150 179 162 179 118 155 209 210 142 215 170 195 132 218 105 191 196 210 202 189 194 192 187 186 185 207 194 190 193 193 183 205 196 206
168 159 163 134 162 151 151 144 177 168 140 173 141 175 141 175 148 184 208 210 202 216 169 205 208 207 208 209 198 202 198 186 184 195 186 189 191 190 189 210 190 197 186
166 126 153 152 192 161 130 111 140 139 169 133 148 152 182 175 175 136 145 203 194 193 214 202 170 151 198 195 201 207 195 185 199 184 190 187 177 181 180 191 205 196 197
166 172 181 160 121 159 177 170 151 182 143 153 197 194 183 151 171 209 201 145 184 211 217 209 206 209 204 195 203 191 203 201 184 182 178 180 181 186 192 190 179 191 198
130 168 170 170 164 141 158 172 132 177 164 179 175 178 175 197 159 193 211 196 209 205 218 209 209 207 201 194 202 193 189 181 173 174 175 178 184 178 184 174 187 176 185
167 152 179 153 170 140 152 179 163 162 157 177 173 149 181 192 200 203 153 183 216 210 214 154 201 200 207 197 202 191 193 184 176 179 180 179 181 184 180 181 175 177 173
146 168 138 186 165 159 174 181 159 174 179 171 192 187 141 195 161 185 192 194 187 211 211 207 194 200 211 193 191 189 196 186 186 182 177 185 181 178 178 163 182 186 176
165 125 130 157 169 132 171 131 127 178 134 178 185 196 173 190 177 192 171 192 192 191 214 207 195 202 200 203 195 195 184 172 179 176 170 177 180 179 169 175 164 171 181
173 161 156 134 140 172 155 162 139 178 168 183 164 185 148 182 172 171 194 159 154 171 210 209 195 191 190 192 189 194 187 175 176 179 175 173 172 175 161 169 179 169 168
153 170 171 143 153 126 167 170 176 159 176 178 173 167 142 177 163 160 186 195 188 192 181 212 204 196 187 190 195 193 183 180 173 172 172 172 183 170 173 186 184 182 182
167 150 167 159 171 130 143 163 129 160 181 173 191 173 169 173 159 143 161 184 187 190 182 201 207 204 197 185 194 178 190 165 180 174 179 179 165 171 173 184 159 155 181
156 126 131 162 163 156 169 147 167 171 171 174 188 183 169 190 180 165 183 152 180 164 194 204 202 202 172 191 136 175 176 180 180 179 177 167 176 173 160 158 167 166 168
164 150 164 155 161 157 147 152 167 169 178 180 186 175 181 187 173 180 166 153 172 168 152 171 193 188 186 173 191 191 170 162 191 174 189 176 173 174 178 181 184 186 185
118 163 156 155 148 136 152 167 158 168 177 171 162 180 164 191 170 170 176 158 156 164 159 160 165 172 132 139 178 178 151 184 182 177 174 172 170 179 180 180 162 169 173
144 125 168 159 158 162 155 169 169 161 179 190 176 165 173 159 189 174 187 163 191 177 171 155 138 149 167 192 182 135 189 171 167 180 175 176 181 169 173 177 179 166 189
150 156 156 145 127 155 160 169 163 173 181 175 175 176 179 174 171 171 162 172 170 198 180 155 191 157 189 166 191 186 177 147 177 156 146 171 166 163 170 176 174 179 180
149 144 152 155 158 160 169 175 178 176 179 176 164 165 177 173 176 190 169 170 169 172 199 182 172 171 171 183 188 154 166 162 188 175 185 183 171 174 178 174 180 184 180
155 159 162 163 164 177 183 183 182 184 179 172 168 179 187 179 169 185 177 177 174 169 160 154 182 191 183 198 174 177 181 189 169 183 182 179 177 180 178 180 173 164 185
159 159 164 165 180 190 179 177 172 160 170 178 158 173 183 177 178 217 208 209 169 183 191 174 196 196 164 180 197 177 162 176 177 182 180 183 175 181 177 174 181 183 182
159 163 166 181 163 168 173 188 187 180 180 183 175 175 170 180 205 210 194 208 198 190 201 185 175 193 180 178 143 150 183 168 172 190 183 186 187 181 179 181 174 180 181
204 183 171 182 173 187 186 192 185 181 174 173 176 170 180 184 199 152 193 202 193 192 200 178 186 191 186 190 163 185 180 179 176 180 184 182 186 166 180 179 185 153 176
177 178 158 170 188 129 178 192 184 179 170 176 182 189 179 182 210 212 203 193 199 191 184 194 187 185 188 176 182 180 161 171 176 179 169 175 178 176 174 183 186 183 187
184 176 195 189 138 188 190 198 194 181 191 184 191 200 199 199 197 213 185 201 193 190 187 184 192 185 192 180 185 176 177 180 182 188 188 182 180 183 166 186 143 175 180
115 192 195 145 135 210 205 194 223 206 194 211 204 190 211 214 202 209 180 203 186 200 203 184 191 193 182 181 188 188 186 180 180 190 188 192 192 193 193 194 192 192 195
Wind_Speed
49 40 49 33 40 35 43 47 46 38 45 52 37 33 32 41 36 33 37 35 38 41 37 47 42 40 41 42 43 43 46 47 46 47 48 50 45 43 49 41 37 39 39
45 40 56 38 45 44 39 52 48 62 41 44 50 52 50 51 31 28 43 50 42 41 41 37 43 36 35 39 42 42 43 45 45 44 44 45 43 37 37 47 49 51 51
43 39 57 41 51 51 40 47 45 44 47 40 49 40 33 48 42 31 44 38 42 51 37 39 39 38 36 36 41 41 42 43 43 41 35 37 40 36 36 47 33 42 36
44 48 47 55 45 55 56 43 50 49 50 50 43 53 29 39 40 43 42 44 42 41 44 41 37 36 36 34 38 38 38 40 42 39 39 37 35 34 36 27 39 35 46
43 48 50 54 52 45 51 46 66 58 52 38 43 40 53 58 41 47 43 41 45 41 38 40 37 49 36 36 35 35 36 38 34 37 37 35 37 36 36 28 28 29 28
46 49 52 55 45 48 50 46 61 61 65 61 65 60 54 60 41 45 43 37 39 43 37 37 35 33 33 33 33 34 29 28 34 36 39 36 37 36 33 30 37 28 23
50 45 50 45 47 60 50 49 57 57 52 62 64 56 54 56 60 51 44 43 46 44 36 35 32 31 33 33 30 32 31 35 39 38 40 38 34 33 31 38 31 31 28
50 57 53 52 50 63 55 64 46 66 58 65 64 67 55 55 50 47 57 45 44 43 38 35 34 32 32 32 28 30 30 34 39 36 37 36 34 31 27 35 37 33 32
57 53 60 62 54 48 63 71 49 67 72 65 58 55 51 50 62 49 47 42 39 43 40 35 38 33 29 31 30 29 26 31 33 34 36 33 31 29 28 35 33 37 34
56 59 63 56 54 69 67 70 66 70 65 62 58 54 56 42 52 48 57 45 43 41 40 37 38 31 32 30 29 27 30 36 34 36 36 33 24 21 28 31 33 30 36
63 61 53 68 62 65 53 63 68 75 52 69 54 53 65 46 53 57 45 51 51 47 43 38 39 38 38 32 30 29 31 34 35 35 38 36 33 22 33 36 36 36 39
56 69 64 65 62 72 67 73 80 51 73 66 56 52 62 45 53 52 45 41 42 43 44 37 37 39 40 37 32 29 31 36 39 41 40 42 37 26 35 35 29 35 35
68 63 65 63 71 69 74 68 73 58 78 66 60 54 50 48 48 58 61 51 35 38 40 38 36 36 37 38 26 26 32 37 39 39 42 43 42 36 38 28 44 44 40
65 72 73 67 68 60 81 64 77 80 70 64 61 56 54 54 46 54 49 61 34 54 37 38 38 36 37 40 42 39 40 40 40 43 46 46 48 48 48 50 49 52 53
74 71 70 66 70 67 68 67 82 76 77 68 64 59 58 59 51 45 52 66 50 49 57 41 39 40 39 38 42 42 38 37 41 45 47 51 52 49 49 51 52 54 52
49 80 71 70 73 69 77 82 79 79 80 70 62 62 61 57 56 50 54 52 64 55 57 54 44 46 52 50 40 40 46 45 46 49 51 51 48 52 54 55 48 54 55
72 79 90 79 81 88 75 91 90 81 84 78 71 63 62 63 58 55 53 58 53 50 52 61 47 56 49 44 43 50 47 46 48 51 54 57 56 53 56 60 61 56 62
73 84 85 75 68 83 91 94 86 92 88 79 77 69 66 65 61 59 61 58 52 54 54 63 47 64 48 52 49 50 47 53 53 54 50 56 56 57 61 66 65 66 64
81 88 91 90 94 100 107 106 101 97 88 85 77 73 70 66 66 67 62 60 63 57 58 57 58 55 56 48 47 62 52 58 59 58 61 63 62 65 67 66 67 68 65
97 99 103 105 106 108 105 100 96 93 86 84 84 79 77 72 71 72 63 61 61 63 62 60 57 54 53 50 52 50 51 55 57 60 60 61 63 64 66 69 69 67 71
102 105 105 105 108 98 97 94 88 87 85 86 81 84 79 77 79 64 68 58 66 64 62 62 60 59 59 58 56 57 58 56 59 61 61 64 63 65 67 70 71 71 72
98 111 106 109 99 100 101 97 91 89 89 89 85 83 83 81 76 63 70 63 62 63 64 62 64 61 62 60 57 53 63 58 61 65 65 67 68 67 70 72 70 72 72
96 107 108 107 103 109 104 103 96 91 90 87 87 84 86 82 80 73 67 64 66 66 64 65 63 63 64 65 59 66 64 67 68 71 71 70 71 64 71 73 79 71 76
98 100 88 106 108 56 104 107 102 95 93 92 89 89 89 86 68 65 64 67 67 69 68 64 69 66 66 67 67 71 69 70 71 75 73 74 75 71 73 81 84 82 87
105 98 108 106 65 101 105 104 103 99 100 94 95 94 88 77 74 64 74 67 69 71 72 72 69 72 71 72 71 74 72 73 78 82 85 84 82 84 77 87 67 74 79
55 113 107 71 66 106 102 101 88 99 96 86 91 91 71 67 71 67 78 69 75 73 71 73 72 73 76 78 81 80 80 79 82 83 86 90 91 93 94 92 91 88 90
Wind_Direction
306 291 317 345 312 316 338 327 323 312 321 338 302 308 275 316 308 287 300 285 283 284 291 282 287 281 275 273 273 270 267 267 269 268 268 269 275 277 275 281 279 277 278
309 294 311 302 309 312 326 317 312 311 316 312 323 329 318 319 286 276 311 277 303 303 297 292 290 286 277 269 270 271 270 270 273 271 276 276 277 279 280 275 274 273 274
305 315 308 312 308 326 300 338 335 323 335 322 325 288 320 325 319 285 313 290 295 275 304 286 294 288 281 275 272 270 270 273 275 275 279 276 276 280 284 276 285 279 282
309 299 305 311 316 300 304 317 340 315 316 319 317 318 307 315 310 314 314 308 302 309 284 298 297 290 283 277 275 272 273 272 272 276 273 274 279 280 282 291 282 282 279
308 309 299 305 331 311 311 290 310 312 329 306 320 318 323 316 314 294 280 309 307 301 305 298 288 285 280 282 277 272 270 271 269 273 274 275 279 281 281 285 300 293 288
308 317 325 307 307 321 339 323 301 342 310 309 334 328 324 315 307 317 313 291 307 308 308 301 299 286 280 280 276 278 271 264 274 273 280 284 285 293 300 294 278 289 296
307 314 315 320 313 308 313 333 312 340 312 328 322 323 319 324 314 316 314 311 309 307 311 304 299 291 281 280 273 273 273 272 275 276 281 284 291 287 290 282 296 275 288
306 300 326 314 325 298 305 337 320 323 311 328 315 309 323 321 319 317 316 307 314 311 312 290 302 301 284 280 272 274 268 269 274 277 279 281 287 291 285 290 279 282 280
300 315 301 323 316 314 332 334 313 334 335 325 327 323 309 324 314 317 318 317 312 315 311 305 301 300 283 285 276 271 262 266 265 273 277 286 290 289 283 271 293 294 285
308 307 306 317 323 307 331 309 308 332 311 327 325 320 315 319 316 320 314 313 312 312 311 305 300 296 291 274 275 262 264 278 273 274 276 282 290 286 276 279 271 274 288
314 306 299 301 302 326 300 321 302 329 323 326 315 315 308 317 311 311 314 317 317 313 311 304 299 296 296 290 286 265 262 276 277 270 275 278 275 272 266 272 279 271 267
294 314 314 306 307 306 324 324 328 311 322 321 314 311 312 311 307 311 317 310 309 308 313 303 298 294 293 293 283 276 265 266 275 277 275 273 273 266 267 273 280 280 276
312 292 314 307 322 305 302 319 304 307 319 313 318 307 305 305 301 312 305 315 309 305 304 301 297 289 287 288 285 279 266 280 269 275 266 266 279 267 262 238 277 282 269
303 300 299 312 316 305 320 291 317 315 312 311 315 309 299 314 305 295 309 310 310 302 306 298 296 292 296 286 277 280 283 281 274 269 270 278 270 268 270 282 275 270 273
305 296 311 302 311 306 291 301 311 310 310 308 308 304 307 312 298 292 289 305 295 298 307 301 298 294 283 293 281 280 279 276 275 275 267 273 272 275 275 274 270 270 272
296 309 308 306 294 300 304 307 306 307 308 305 297 306 299 307 295 290 303 304 295 296 297 299 299 303 278 286 284 282 275 280 279 276 275 275 277 278 277 276 276 276 277
288 299 310 308 304 303 294 306 305 304 305 305 301 297 300 292 307 297 308 287 309 294 292 296 294 301 297 280 278 269 274 285 283 271 273 274 274 280 278 276 276 272 279
291 300 300 291 291 295 297 303 305 306 306 301 300 299 301 299 297 295 290 291 287 306 296 290 290 292 287 291 272 275 281 271 272 288 275 277 282 284 279 274 275 275 277
295 293 293 295 297 298 300 301 304 304 301 298 294 295 298 294 296 303 294 291 295 290 301 291 291 289 290 287 281 290 286 283 269 274 270 269 275 271 271 275 273 272 274
295 294 295 296 298 300 298 298 300 298 296 294 294 297 300 296 292 298 292 292 290 290 286 288 289 288 290 275 288 287 280 268 280 269 269 269 270 270 271 271 275 282 276
291 292 292 293 294 294 293 293 294 291 294 295 295 293 298 297 296 287 293 285 288 292 288 291 288 283 286 287 271 283 281 281 278 270 271 267 270 268 270 271 273 276 279
287 288 290 291 288 289 291 293 292 292 292 291 291 293 293 297 298 283 293 280 283 288 277 290 288 280 282 287 286 284 278 282 285 272 273 272 270 271 273 276 277 279 282
283 286 289 290 289 292 291 291 290 289 286 288 290 289 294 297 298 295 285 278 284 283 277 280 286 279 282 275 290 274 279 278 282 278 275 277 276 279 277 279 280 276 282
286 287 285 286 287 280 287 289 287 286 286 288 292 293 292 293 283 278 272 281 273 281 285 277 280 279 278 287 271 282 279 279 283 281 277 284 282 283 278 279 280 282 282
289 286 288 286 283 286 286 285 285 285 288 289 290 291 291 285 287 272 287 270 274 278 282 285 276 279 273 282 275 281 280 274 275 273 272 278 276 277 277 278 283 281 282
289 287 286 286 286 283 283 282 277 282 285 284 286 288 279 273 276 265 287 264 280 267 266 281 274 273 281 280 273 274 275 279 278 275 275 272 274 275 277 279 281 282 283